Location: Trois-Rivi�res
(46.3500°N, 72.5500°W)
Time: 22:12:10
(UTC-04:00)

Envisat - Pass Details

Date: 16 October 2017
Orbit: 764 x 766 km, 98.2° (Epoch: 17 October)

Event Time Altitude Azimuth Distance (km) Brightness Sun altitude
Exits shadow 19:06:03 16° 81° (E) 1,917 4.4 -11.9°
Maximum altitude 19:07:33 18° 59° (ENE) 1,807 4.4 -12.2°
Drops below altitude 10° 19:10:56 10° 18° (NNE) 2,312 5.3 -12.7°
Sets 19:13:53 0° 360° (N) 3,243 6.3 -13.3°
